Location: Bullenkuhlen
(53.7689°N, 9.7495°E)
Time: 13:12:56
(UTC+00:00)

Cosmos 1151 Rocket - Pass Details

Date: 09 April 2020
Orbit: 593 x 615 km, 82.5° (Epoch: 02 June)

Event Time Altitude Azimuth Distance (km) Brightness Sun altitude
Exits shadow 22:55:26 35° 45° (NE) 998 4.3 -27.9°
Drops below altitude 10° 22:58:13 10° 21° (NNE) 1,962 6.4 -28.0°
Sets 23:00:29 0° 16° (NNE) 2,866 7.5 -28.0°
